Location: Pordenone
(45.9640°N, 12.6580°E)
Time: 17:59:45
(UTC+02:00)

ISS - Pass Details

Date: 17 May 2021
Orbit: 417 x 422 km, 51.6° (Epoch: 18 June)

Event Time Altitude Azimuth Distance (km) Brightness Sun altitude
Rises 23:39:45 0° 278° (W) 2,365 0.5 -21.7°
Reaches altitude 10° 23:42:00 10° 289° (WNW) 1,503 -0.4 -21.8°
Maximum altitude 23:45:03 31° 354° (N) 766 -1.8 -22.0°
Drops below altitude 10° 23:48:07 10° 58° (ENE) 1,507 -0.8 -22.2°
Enters shadow 23:49:29 - 66° (ENE) 2,022 -0.2 -22.3°
